Weather History for Newark Heath, OH

Change the Weather History Date:

Sunday, January 6, 2013

  Actual Average Record
Temperature  
Mean Temperature 32 °F -  
Max Temperature 37 °F 35 °F - (-1)
Min Temperature 28 °F 22 °F - (-1)
Degree Days  
Heating Degree Days 32    
Moisture  
Dew Point 27 °F    
Average Humidity 75    
Maximum Humidity 87    
Minimum Humidity 67    
Precipitation  
Precipitation 0.00 in - - ()
Sea Level Pressure  
Sea Level Pressure 30.11 in    
Wind  
Wind Speed 9 mph (WSW)    
Max Wind Speed 17 mph    
Max Gust Speed 26 mph    
Visibility 9 miles    
Events      
Averages and records for this station are not official NWS values.
T = Trace of Precipitation, MM = Missing Value Source: NWS Daily Summary

Daily Weather History Graph

Daily Weather History Graph

Search for Another Location

Airport:

Trip Planner

Search our weather history database for the weather conditions in past years. The results will help you decide how hot, cold, wet, or windy it might be!

Date:

Astronomy

Jan. 06, 2013 Rise Set
Actual Time 7:51 AM EST 5:20 PM EST
Civil Twilight 7:21 AM EST 5:50 PM EST
Nautical Twilight 6:47 AM EST 6:24 PM EST
Astronomical Twilight 6:15 AM EST 6:56 PM EST
Moon 2:04 AM EST (1/6) 12:46 PM EST (1/6)
Length of Visible Light 10h 28m
Length of Day
9h 28m
Waning Crescent, 33% of the Moon is Illuminated
Jan 6
Waning Crescent
Jan 11
New
Jan 18
First Quarter
Jan 26
Full
Feb 3
Last Quarter

Hourly Weather History & Observations

Time (EST) Temp. Windchill Dew Point Humidity Pressure Visibility Wind Dir Wind Speed Gust Speed Precip Events Conditions
12:54 AM 36.0 °F 31.1 °F 27.0 °F 70% 30.14 in 10.0 mi SW 5.8 mph - N/A   Overcast
1:54 AM 36.0 °F 29.6 °F 26.1 °F 67% 30.14 in 10.0 mi SW 8.1 mph - N/A   Overcast
2:54 AM 35.1 °F 31.0 °F 26.1 °F 70% 30.12 in 10.0 mi South 4.6 mph - N/A   Overcast
3:54 AM 34.0 °F 29.8 °F 26.1 °F 73% 30.11 in 10.0 mi SSW 4.6 mph - N/A   Overcast
4:54 AM 35.1 °F 30.1 °F 26.1 °F 70% 30.08 in 10.0 mi SSW 5.8 mph - N/A   Overcast
5:54 AM 35.1 °F 29.3 °F 26.1 °F 70% 30.07 in 10.0 mi SSW 6.9 mph - N/A   Overcast
6:54 AM 35.1 °F 30.1 °F 27.0 °F 72% 30.07 in 10.0 mi SSW 5.8 mph - N/A   Overcast
7:54 AM 36.0 °F 29.0 °F 27.0 °F 70% 30.07 in 10.0 mi SSW 9.2 mph - N/A   Overcast
8:54 AM 37.0 °F 31.0 °F 28.0 °F 70% 30.07 in 10.0 mi SSW 8.1 mph - N/A   Overcast
9:54 AM 37.9 °F 30.9 °F 28.0 °F 68% 30.07 in 10.0 mi SW 10.4 mph - N/A   Overcast
10:54 AM 37.9 °F 30.5 °F 28.9 °F 70% 30.07 in 10.0 mi SW 11.5 mph - N/A   Overcast
11:54 AM 37.9 °F 30.9 °F 28.9 °F 70% 30.04 in 10.0 mi SW 10.4 mph - N/A   Overcast
12:54 PM 37.9 °F 30.5 °F 28.9 °F 70% 30.01 in 10.0 mi SW 11.5 mph - N/A   Overcast
1:50 PM 37.4 °F 29.8 °F 30.2 °F 75% 30.00 in 10.0 mi SW 11.5 mph - N/A   Overcast
1:54 PM 37.9 °F 31.5 °F 30.0 °F 73% 30.02 in 10.0 mi SW 9.2 mph - N/A   Overcast
2:54 PM 37.0 °F 28.9 °F 30.0 °F 76% 30.03 in 10.0 mi WSW 12.7 mph - 0.00 in   Overcast
4:29 PM 35.6 °F 29.2 °F 32.0 °F 87% 30.05 in 7.0 mi SW 8.1 mph - 0.00 in   Overcast
4:54 PM 36.0 °F 29.6 °F 32.0 °F 86% 30.08 in 7.0 mi WSW 8.1 mph - 0.00 in   Overcast
5:01 PM 35.6 °F 29.2 °F 32.0 °F 87% 30.06 in 7.0 mi WSW 8.1 mph - N/A   Overcast
5:49 PM 35.6 °F 26.2 °F 30.2 °F 81% 30.08 in 9.0 mi West 15.0 mph - N/A   Overcast
5:54 PM 36.0 °F 26.0 °F 30.9 °F 82% 30.12 in 8.0 mi WNW 17.3 mph 26.5 mph 0.00 in   Overcast
6:54 PM 33.1 °F 23.0 °F 27.0 °F 78% 30.17 in 10.0 mi WNW 15.0 mph - 0.00 in   Overcast
7:13 PM 33.8 °F 23.9 °F 26.6 °F 75% 30.15 in 10.0 mi West 15.0 mph 20.7 mph N/A   Overcast
7:41 PM 32.0 °F 21.6 °F 24.8 °F 75% 30.17 in 9.0 mi WNW 15.0 mph - N/A   Overcast
7:54 PM 30.9 °F 20.7 °F 25.0 °F 79% 30.21 in 9.0 mi West 13.8 mph - N/A   Overcast
8:54 PM 30.0 °F 20.0 °F 23.0 °F 75% 30.24 in 8.0 mi West 12.7 mph - N/A   Overcast
9:54 PM 28.9 °F 19.2 °F 23.0 °F 78% 30.26 in 6.0 mi West 11.5 mph - N/A   Haze
11:10 PM 28.4 °F 19.7 °F 23.0 °F 80% 30.27 in 5.0 mi West 9.2 mph - N/A   Haze
11:54 PM 28.0 °F 19.3 °F 23.0 °F 81% 30.32 in 5.0 mi West 9.2 mph - N/A   Haze